SCOUT X-4 R/B, 1739

Orbit data source: Space-Track

SCOUT X-4 R/B, 1739 is space debris in LEO originally from a launch on Fri, 19 Nov 1965 UTC launched from the Wallops Island (WLPIS). Debris objects in space refer to the collection of defunct objects orbiting the Earth. Examples of debris include non-operational satellites, rocket bodies, and fragments generated from explosions, collisions, or faulty payload assembly.

Loading next visibility...
SCOUT X-4 R/B details
Identifier
1739, 1965-093B
Orbit
LEO
Last TLE update15 hours ago
Origin
Flag of USNASA LaRC (US)
ManufacturerABL
MissionSpacecraft
Bus & MotorALTAIR, Unknown motor
Mass33 kg wet, 33 kg dry
Launch date (UTC)
1965-11-19 (59 years ago)
Launch vehicleUnknown
Launch site
Wallops Island (WLPIS)
Object type
Payload
Rocket body
Debris
Shape & HBRCyl, 1.5 m
Radar Cross Section0.687 m², Medium (>0.1 m² and < 1m²)

Expand to show TLE details & history

TLE from 15 hours ago
0 SCOUT X-4 R/B
1 01739U 65093B   24355.87571407  .00001266  00000-0  32057-3 0  9996
2 01739  59.7042 302.4747 0089125 109.9380 251.1291 14.54073867 91276
Epoch: 2024-12-20T21:01Z
Definitive object data (Epoch: 2024-12-20T21:01:01.695Z)
Latitude-0.00009°
Longitude-102.71736°
Altitude734.838 km
Speed7.477 km/s
True Right ascension20h 09m 53s
True Declination0° 00' 00"
Sunlit
Object was in daylight at TLE epoch
Visualization TLE readout
Latitude38.26536°
Longitude47.76735°
Altitude658.334 km
Speed7.563 km/s
Apparent Right ascension03h 07m 48s
Apparent Declination2° 16' 11"
Sunlit
Object is in full shadow
Visualization observer readout
Local Sidereal Time11:30:30
Azimuth296.477° NW
Elevation-24.932°
Doppler factor1
Orbital elements
Apogee altitude774.831 km
Perigee altitude648.456 km
Semi-major axis7,089.781 km
Eccentricity0.0089125
Inclination59.7042°
RAAN302.4747°
Arg. of periapsis109.938°
True anomaly250.16621°
Mean anomaly251.1291°
Eccentric anomaly250.6473°
Mean motion3.63575 °/min
BSTAR0.00032057
Orbital period99.02 mins
Loading maneuver chart data...
Loading historical data...
Loading historical data...
Loading historical data...
Loading historical data...
Loading historical data...
Loading historical data...
Loading historical data...
Other satellites on launch #93 in the year 1965 (1965-11-19 UTC)

SCOUT X-4 R/B Visibility forecast

Observer location: undefined°, undefined

Span
Click to sort rows by Start time (UTC) header in descending order
Start Az.
Max El. time (UTC)
Max El. Az.
Max El.
End time (UTC)
End Az.
8 mins2024-12-21 21:53:41.640Z182.98° SSW2024-12-21 21:57:41.640Z125.39° SE28.531°2024-12-21 22:01:41.640Z60.538° ENE
6 mins2024-12-21 23:37:41.640Z264.817° W2024-12-21 23:40:41.640Z329.011° NNW29.799°2024-12-21 23:43:41.640Z18.392° NNE
7 mins2024-12-22 06:33:41.640Z327.304° NNW2024-12-22 06:36:41.640Z32.806° NE43.432°2024-12-22 06:40:41.640Z132.815° SE
|